This demonstration page uses our WeatherBlox Daily Observations layout. Learn more.

Left ArrowRight Arrow

Hourly Observations for September 28, 2016

Temp ( °F °C ) Dew Point ( °F °C ) Humidity (%) Winds ( mph kmh ) Pressure ( in mb ) Visibility ( mi km ) Precip ( " mm )
12:15 am 00:15 Partly Cloudy 61 16 59 15 94 94 ESE 3 6 29.97 1015 10 16 N/A
12:35 am 00:35 Partly Cloudy 59 15 59 15 100 100 N N/A 29.97 1015 10 16 N/A
12:55 am 00:55 Mostly Cloudy 59 15 59 15 100 100 N N/A 29.97 1015 10 16 N/A
1:15 am 01:15 Cloudy 61 16 61 16 100 100 N N/A 29.97 1015 10 16 N/A
1:35 am 01:35 Cloudy 61 16 61 16 100 100 N N/A 29.97 1015 10 16 N/A
1:55 am 01:55 Cloudy 61 16 61 16 100 100 N N/A 29.97 1015 10 16 N/A
2:15 am 02:15 Cloudy 63 17 61 16 94 94 N N/A 29.97 1015 10 16 N/A
2:35 am 02:35 Cloudy 63 17 63 17 100 100 NE 3 6 29.97 1015 10 16 N/A
2:55 am 02:55 Cloudy 63 17 63 17 100 100 N N/A 29.97 1015 7 11 N/A
3:15 am 03:15 Cloudy with Mist and Fog 63 17 63 17 100 100 N N/A 29.97 1015 5 8 N/A
3:35 am 03:35 Cloudy with Mist and Fog 63 17 63 17 100 100 N N/A 29.97 1015 5 8 N/A
3:55 am 03:55 Cloudy with Mist and Fog 63 17 63 17 100 100 N 3 6 29.97 1015 4 6 N/A
4:15 am 04:15 Cloudy with Mist and Fog 63 17 63 17 100 100 N N/A 29.97 1015 4 6 N/A
4:35 am 04:35 Cloudy with Mist and Fog 63 17 63 17 100 100 N N/A 29.97 1015 4 6 N/A
4:55 am 04:55 Cloudy with Light Rain 63 17 63 17 100 100 NNE 5 7 29.97 1015 5 8 N/A
5:15 am 05:15 Cloudy with Mist and Fog 63 17 63 17 100 100 NNE 5 7 29.97 1015 5 8 N/A
5:35 am 05:35 Cloudy with Mist and Fog 63 17 63 17 100 100 N N/A 29.97 1015 5 8 N/A
5:55 am 05:55 Cloudy 63 17 63 17 100 100 NE 3 6 29.97 1015 7 11 N/A
6:15 am 06:15 Cloudy 63 17 63 17 100 100 NE 3 6 29.97 1015 7 11 N/A
6:35 am 06:35 Cloudy 64 18 64 18 100 100 NNE 5 7 29.97 1015 7 11 N/A
6:55 am 06:55 Cloudy 63 17 63 17 100 100 NNE 3 6 29.97 1015 7 11 N/A
7:15 am 07:15 Cloudy 63 17 63 17 100 100 N N/A 29.97 1015 7 11 N/A
7:35 am 07:35 Cloudy with Mist and Fog 63 17 63 17 100 100 N N/A 30.00 1016 5 8 N/A
7:55 am 07:55 Cloudy with Mist and Fog 63 17 63 17 100 100 NE 3 6 30.00 1016 3 5 N/A
8:15 am 08:15 Cloudy with Mist and Fog 63 17 63 17 100 100 NNE 3 6 30.00 1016 3 5 N/A
8:35 am 08:35 Cloudy with Mist and Fog 63 17 63 17 100 100 N 3 6 30.00 1016 4 6 N/A
8:55 am 08:55 Cloudy with Mist and Fog 63 17 63 17 100 100 NNE 5 7 30.00 1016 4 6 N/A
9:15 am 09:15 Cloudy with Mist and Fog 63 17 63 17 100 100 N N/A 30.00 1016 5 8 N/A
9:35 am 09:35 Cloudy with Light Rain 63 17 63 17 100 100 N 5 7 30.00 1016 5 8 N/A
9:55 am 09:55 Cloudy with Light Rain 63 17 63 17 100 100 NE 3 6 30.03 1017 5 8 N/A
10:15 am 10:15 Cloudy with Mist and Fog 64 18 63 17 94 94 NNE 3 6 30.03 1017 5 8 N/A
10:35 am 10:35 Cloudy with Mist and Fog 64 18 63 17 94 94 N N/A 30.03 1017 5 8 N/A
10:55 am 10:55 Cloudy 64 18 63 17 94 94 ENE 3 6 30.03 1017 7 11 N/A
11:15 am 11:15 Cloudy 66 19 63 17 88 88 E 7 11 30.03 1017 10 16 N/A
11:35 am 11:35 Cloudy 68 20 63 17 83 83 E 8 13 30.03 1017 10 16 N/A
11:55 am 11:55 Cloudy 68 20 63 17 83 83 ESE 8 13 30.03 1017 10 16 N/A
12:15 pm 12:15 Cloudy with Nearby Thunderstorms 68 20 63 17 83 83 E 9 15 30.03 1017 10 16 N/A
12:35 pm 12:35 Cloudy 68 20 63 17 83 83 ESE 5 7 30.03 1017 10 16 N/A
12:55 pm 12:55 Cloudy 68 20 63 17 83 83 E 8 13 30.03 1017 10 16 N/A
1:15 pm 13:15 Cloudy with Thunderstorms 68 20 63 17 83 83 ESE 6 9 30.03 1017 10 16 N/A
1:30 pm 13:30 Cloudy 68 20 64 18 88 88 ESE 3 6 30.03 1017 10 16 N/A
1:55 pm 13:55 Cloudy with Thunderstorms 66 19 64 18 94 94 ENE 7 11 30.03 1017 10 16 N/A
2:15 pm 14:15 Cloudy with Thunderstorms 66 19 64 18 94 94 NE 8 13 30.03 1017 10 16 N/A
2:35 pm 14:35 Cloudy with Rain 64 18 64 18 100 100 NE 7 11 30.00 1016 3 4 N/A
2:55 pm 14:55 Cloudy with Heavy Rain 64 18 64 18 100 100 NNE 3 6 30.03 1017 1 2 N/A
3:15 pm 15:15 Cloudy with Rain 64 18 64 18 100 100 NE 7 11 30.03 1017 3 5 N/A
3:35 pm 15:35 Cloudy with Rain 64 18 64 18 100 100 N 6 9 30.03 1017 4 6 N/A
3:55 pm 15:55 Cloudy with Light Rain 64 18 64 18 100 100 NNE 7 11 30.00 1016 5 8 N/A
4:15 pm 16:15 Cloudy with Nearby Thunderstorms 64 18 64 18 100 100 NNE 8 13 30.00 1016 5 8 N/A
4:35 pm 16:35 Cloudy with Light Rain 64 18 64 18 100 100 NE 3 6 30.00 1016 5 8 N/A
4:50 pm 16:50 Cloudy with Light Rain 64 18 64 18 100 100 NE 6 9 30.00 1016 5 8 N/A
5:15 pm 17:15 Cloudy 64 18 64 18 100 100 N 6 9 30.00 1016 7 11 N/A
5:35 pm 17:35 Cloudy 64 18 64 18 100 100 N 6 9 30.00 1016 7 11 N/A
5:55 pm 17:55 Cloudy with Heavy Rain 64 18 64 18 100 100 N 7 11 30.03 1017 1 1 N/A
6:15 pm 18:15 Cloudy with Light Rain 64 18 64 18 100 100 NNE 6 9 30.03 1017 4 6 N/A
6:35 pm 18:35 Cloudy with Light Rain 66 19 66 19 100 100 N N/A 30.03 1017 10 16 N/A
6:55 pm 18:55 Cloudy with Nearby Thunderstorms 66 19 66 19 100 100 NNE 6 9 30.03 1017 5 8 N/A
7:15 pm 19:15 Cloudy with Drizzle 66 19 66 19 100 100 N N/A 30.03 1017 7 11 N/A
7:35 pm 19:35 Cloudy 66 19 66 19 100 100 NNE 5 7 30.03 1017 7 11 N/A
7:55 pm 19:55 Cloudy with Mist and Fog 66 19 66 19 100 100 N N/A 30.03 1017 5 8 N/A
8:15 pm 20:15 Cloudy with Mist and Fog 66 19 66 19 100 100 NE 3 6 30.03 1017 5 8 N/A
8:35 pm 20:35 Cloudy with Mist and Fog 68 20 68 20 100 100 N N/A 30.03 1017 5 8 N/A
8:55 pm 20:55 Cloudy 68 20 68 20 100 100 E 5 7 30.03 1017 10 16 N/A
9:15 pm 21:15 Cloudy with Nearby Thunderstorms 68 20 68 20 100 100 E 9 15 30.03 1017 10 16 N/A
9:35 pm 21:35 Cloudy with Light Rain 68 20 68 20 100 100 SE 9 15 30.03 1017 10 16 N/A
9:55 pm 21:55 Cloudy with Light Rain 68 20 68 20 100 100 E 8 13 30.03 1017 7 11 N/A
10:15 pm 22:15 Cloudy with Rain 68 20 68 20 100 100 E 12 19 30.03 1017 10 16 N/A
10:35 pm 22:35 Cloudy with Light Rain 68 20 68 20 100 100 E 8 13 30.03 1017 10 16 N/A
10:55 pm 22:55 Cloudy with Light Rain 68 20 68 20 100 100 ESE 13 20 30.03 1017 10 16 N/A
11:15 pm 23:15 Cloudy with Light Rain 66 19 66 19 100 100 E 9 15 30.03 1017 7 11 N/A
11:35 pm 23:35 Cloudy with Light Rain 66 19 66 19 100 100 ESE 7 11 30.03 1017 10 16 N/A
11:55 pm 23:55 Cloudy 66 19 66 19 100 100 E 10 17 30.03 1017 10 16 N/A

Powered by AerisWeather